CAPE
0 0 0 0 0 0 0 0 0 0 0 0 0 0 0 0 0 0 0 0 0 0 0 0 0 0 0 0 0 0 0 0 0 0 0 1 6 5 5 5 1 2 1 3
1 0 0 0 0 0 0 0 0 0 0 0 0 0 0 0 0 0 0 0 0 0 0 0 0 0 0 0 0 0 0 0 0 0 0 0 1 5 5 10 10 7 10 16
1 0 0 0 0 0 0 0 0 0 0 0 0 0 0 0 0 0 0 0 0 0 0 0 0 0 0 0 0 0 0 0 0 0 0 0 0 4 8 8 11 9 16 21
0 0 0 0 0 0 0 0 0 0 0 0 0 0 0 0 0 0 0 0 0 0 0 0 0 0 0 0 0 0 0 0 0 0 0 0 0 0 5 8 7 9 20 31
0 0 0 0 0 0 0 0 0 0 0 0 0 0 0 0 0 0 0 0 0 0 0 0 0 0 0 0 0 0 0 0 0 0 0 0 0 0 5 8 10 14 21 23
1 0 0 0 0 0 0 0 0 0 0 0 0 0 0 0 0 0 0 0 0 0 0 0 0 0 0 0 0 0 0 0 0 0 0 3 8 2 2 3 7 13 0 0
0 0 0 0 0 0 0 0 0 0 0 0 0 0 0 0 0 0 0 0 0 0 0 0 0 0 0 0 0 0 0 0 0 0 0 5 4 6 5 0 1 0 0 0
0 0 0 0 0 0 0 0 0 0 0 0 0 0 0 0 0 0 0 0 0 0 0 0 0 0 0 0 0 0 0 0 0 0 1 0 3 2 0 0 0 0 0 0
0 0 0 0 0 0 0 0 0 0 0 0 0 0 0 0 0 0 0 0 0 0 0 0 0 0 0 0 0 0 0 0 0 3 3 0 2 0 0 0 0 0 0 0
0 0 0 0 0 0 0 0 0 0 0 0 0 0 0 0 0 0 0 0 0 0 0 0 0 0 0 0 0 0 0 0 0 0 0 0 0 0 0 0 0 0 0 0
0 0 0 0 0 0 0 0 0 0 0 0 0 0 0 0 0 0 0 0 0 0 0 0 0 0 0 0 0 0 0 0 0 0 0 0 0 0 0 0 0 0 0 0
0 0 0 0 0 0 0 0 0 0 0 0 0 0 0 0 0 0 0 0 0 0 0 0 0 0 0 0 0 0 0 0 0 0 0 0 0 0 0 0 0 0 0 0
0 0 0 0 0 0 0 0 0 0 0 0 0 0 0 0 0 0 0 0 0 0 0 0 0 0 0 0 0 0 0 0 0 0 0 0 0 0 0 0 0 0 0 0
0 0 0 0 0 0 0 0 0 0 0 0 0 0 0 0 0 0 0 0 0 0 0 0 0 0 0 0 0 0 0 0 0 0 0 0 0 0 0 0 0 0 0 0
0 0 0 0 0 0 0 0 0 0 0 0 0 0 0 0 0 0 0 0 0 0 0 0 0 0 0 0 0 0 0 0 0 0 0 0 0 0 0 0 0 0 0 0
0 0 0 0 0 0 0 0 0 0 0 0 0 0 0 0 0 0 0 0 0 0 0 0 0 0 0 0 0 0 0 0 0 0 0 0 0 0 0 0 0 0 0 0
0 0 0 0 0 0 0 0 0 0 0 0 0 0 0 0 0 0 0 0 0 0 0 0 0 0 0 0 0 0 0 0 0 0 0 0 0 0 0 0 0 0 0 0
0 0 0 0 0 0 0 0 0 0 0 0 0 0 0 0 0 0 0 0 0 0 0 0 0 0 0 0 0 0 0 0 0 0 0 0 0 0 0 0 0 0 0 0
0 0 0 0 0 0 0 0 0 0 0 0 0 0 0 0 0 0 0 0 0 0 0 0 0 0 0 0 0 0 0 0 0 0 0 0 0 0 0 0 0 0 0 0
0 0 0 0 0 0 0 0 0 0 0 0 0 0 0 0 0 0 0 0 0 0 0 0 0 0 0 0 0 0 0 0 0 0 0 0 0 0 0 0 0 0 0 0
0 0 0 0 0 0 0 0 0 0 0 0 0 0 0 0 0 0 0 0 0 0 0 0 0 0 0 0 0 0 0 0 0 0 0 0 0 0 0 0 0 0 0 0
0 0 0 0 0 0 0 0 0 0 0 0 0 0 0 0 0 0 0 0 0 0 0 0 0 0 0 0 0 0 0 0 0 0 0 0 0 0 0 0 0 0 0 0
0 0 0 0 0 0 0 0 0 0 0 0 0 0 0 0 0 0 0 0 0 0 0 0 0 0 0 0 0 0 0 0 0 0 0 0 0 0 0 0 0 0 0 0
0 0 0 0 0 0 0 0 0 0 0 0 0 0 0 0 0 0 0 0 0 0 0 0 0 0 0 0 0 0 0 0 0 0 0 0 0 0 0 0 0 0 0 0
0 0 0 0 0 0 0 0 0 0 0 0 0 0 0 0 0 0 0 0 0 0 0 0 0 0 0 0 0 0 0 0 0 0 0 0 0 0 0 0 0 0 0 0
0 0 0 0 0 0 0 0 0 0 0 0 0 0 0 0 0 0 0 0 0 0 0 0 0 0 0 0 0 0 0 0 0 0 0 0 0 0 0 0 0 0 0 0
CIN
-0 -0 -0 -0 -0 -0 -0 -0 -0 -0 -0 -0 -0 -0 -0 -0 -0 -0 -0 -0 -0 -0 -0 -0 -0 -0 -0 -0 -0 -0 -0 -0 -0 -0 -0 -5 -16 -15 -13 -19 -21 -13 -12 -17
-0 -0 -0 -0 -0 -0 -0 -0 -0 -0 -0 -0 -0 -0 -0 -0 -0 -0 -0 -0 -0 -0 -0 -0 -0 -0 -0 -0 -0 -0 -0 -0 -0 -0 -0 -0 -4 -18 -13 -14 -16 -13 -14 -11
-0 -0 -0 -0 -0 -0 -0 -0 -0 -0 -0 -0 -0 -0 -0 -0 -0 -0 -0 -0 -0 -0 -0 -0 -0 -0 -0 -0 -0 -0 -0 -0 -0 -0 -0 -0 -0 -18 -11 -15 -10 -11 -12 -9
-0 -0 -0 -0 -0 -0 -0 -0 -0 -0 -0 -0 -0 -0 -0 -0 -0 -0 -0 -0 -0 -0 -0 -0 -0 -0 -0 -0 -0 -0 -0 -0 -0 -0 -0 -0 -0 -1 -8 -10 -15 -12 -8 -6
-0 -0 -0 -0 -0 -0 -0 -0 -0 -0 -0 -0 -0 -0 -0 -0 -0 -0 -0 -0 -0 -0 -0 -0 -0 -0 -0 -0 -0 -0 -0 -0 -0 -0 -0 -0 -0 -5 -11 -11 -9 -7 -4 -4
-0 -0 -0 -0 -0 -0 -0 -0 -0 -0 -0 -0 -0 -0 -0 -0 -0 -0 -0 -0 -0 -0 -0 -0 -0 -0 -0 -0 -0 -0 -0 -0 -0 -0 -0 -26 -44 -45 -23 -14 -14 -10 -11 -0
-0 -0 -0 -0 -0 -0 -0 -0 -0 -0 -0 -0 -0 -0 -0 -0 -0 -0 -0 -0 -0 -0 -0 -0 -0 -0 -0 -0 -0 -0 -0 -0 -0 -0 -0 -52 -48 -39 -35 -10 -33 -27 -0 -0
-0 -0 -0 -0 -0 -0 -0 -0 -0 -0 -0 -0 -0 -0 -0 -0 -0 -0 -0 -0 -0 -0 -0 -0 -0 -0 -0 -0 -0 -0 -0 -0 -0 -0 -0 -4 -62 -50 -0 -0 -0 -0 -0 -0
-0 -0 -0 -0 -0 -0 -0 -0 -0 -0 -0 -0 -0 -0 -0 -0 -0 -0 -0 -0 -0 -0 -0 -0 -0 -0 -0 -0 -0 -0 -0 -0 -0 -0 -0 -0 -79 -0 -0 -0 -0 -0 -0 -0
-0 -0 -0 -0 -0 -0 -0 -0 -0 -0 -0 -0 -0 -0 -0 -0 -0 -0 -0 -0 -0 -0 -0 -0 -0 -0 -0 -0 -0 -0 -0 -0 -0 -0 -0 -0 -0 -0 -0 -0 -0 -0 -0 -0
-0 -0 -0 -0 -0 -0 -0 -0 -0 -0 -0 -0 -0 -0 -0 -0 -0 -0 -0 -0 -0 -0 -0 -0 -0 -0 -0 -0 -0 -0 -0 -0 -0 -0 -0 -0 -0 -0 -0 -0 -0 -0 -0 -0
-0 -0 -0 -0 -0 -0 -0 -0 -0 -0 -0 -0 -0 -0 -0 -0 -0 -0 -0 -0 -0 -0 -0 -0 -0 -0 -0 -0 -0 -0 -0 -0 -0 -0 -0 -0 -0 -0 -0 -0 -0 -0 -0 -0
-0 -0 -0 -0 -0 -0 -0 -0 -0 -0 -0 -0 -0 -0 -0 -0 -0 -0 -0 -0 -0 -0 -0 -0 -0 -0 -0 -0 -0 -0 -0 -0 -0 -0 -0 -0 -0 -0 -0 -0 -0 -0 -0 -0
-0 -0 -0 -0 -0 -0 -0 -0 -0 -0 -0 -0 -0 -0 -0 -0 -0 -0 -0 -0 -0 -0 -0 -0 -0 -0 -0 -0 -0 -0 -0 -0 -0 -0 -0 -0 -0 -0 -0 -0 -0 -0 -0 -0
-0 -0 -0 -0 -0 -0 -0 -0 -0 -0 -0 -0 -0 -0 -0 -0 -0 -0 -0 -0 -0 -0 -0 -0 -0 -0 -0 -0 -0 -0 -0 -0 -0 -0 -0 -0 -0 -0 -0 -0 -0 -0 -0 -0
-0 -0 -0 -0 -0 -0 -0 -0 -0 -0 -0 -0 -0 -0 -0 -0 -0 -0 -0 -0 -0 -0 -0 -0 -0 -0 -0 -0 -0 -0 -0 -0 -0 -0 -0 -0 -0 -0 -0 -0 -0 -0 -0 -0
-0 -0 -0 -0 -0 -0 -0 -0 -0 -0 -0 -0 -0 -0 -0 -0 -0 -0 -0 -0 -0 -0 -0 -0 -0 -0 -0 -0 -0 -0 -0 -0 -0 -0 -0 -0 -0 -0 -0 -0 -0 -0 -0 -0
-0 -0 -0 -0 -0 -0 -0 -0 -0 -0 -0 -0 -0 -0 -0 -0 -0 -0 -0 -0 -0 -0 -0 -0 -0 -0 -0 -0 -0 -0 -0 -0 -0 -0 -0 -0 -0 -0 -0 -0 -0 -0 -0 -0
-0 -0 -0 -0 -0 -0 -0 -0 -0 -0 -0 -0 -0 -0 -0 -0 -0 -0 -0 -0 -0 -0 -0 -0 -0 -0 -0 -0 -0 -0 -0 -0 -0 -0 -0 -0 -0 -0 -0 -0 -0 -0 -0 -0
-0 -0 -0 -0 -0 -0 -0 -0 -0 -0 -0 -0 -0 -0 -0 -0 -0 -0 -0 -0 -0 -0 -0 -0 -0 -0 -0 -0 -0 -0 -0 -0 -0 -0 -0 -0 -0 -0 -0 -0 -0 -0 -0 -0
-0 -0 -0 -0 -0 -0 -0 -0 -0 -0 -0 -0 -0 -0 -0 -0 -0 -0 -0 -0 -0 -0 -0 -0 -0 -0 -0 -0 -0 -0 -0 -0 -0 -0 -0 -0 -0 -0 -0 -0 -0 -0 -0 -0
-0 -0 -0 -0 -0 -0 -0 -0 -0 -0 -0 -0 -0 -0 -0 -0 -0 -0 -0 -0 -0 -0 -0 -0 -0 -0 -0 -0 -0 -0 -0 -0 -0 -0 -0 -0 -0 -0 -0 -0 -0 -0 -0 -0
-0 -0 -0 -0 -0 -0 -0 -0 -0 -0 -0 -0 -0 -0 -0 -0 -0 -0 -0 -0 -0 -0 -0 -0 -0 -0 -0 -0 -0 -0 -0 -0 -0 -0 -0 -0 -0 -0 -0 -0 -0 -0 -0 -0
-0 -0 -0 -0 -0 -0 -0 -0 -0 -0 -0 -0 -0 -0 -0 -0 -0 -0 -0 -0 -0 -0 -0 -0 -0 -0 -0 -0 -0 -0 -0 -0 -0 -0 -0 -0 -0 -0 -0 -0 -0 -0 -0 -0
-0 -0 -0 -0 -0 -0 -0 -0 -0 -0 -0 -0 -0 -0 -0 -0 -0 -0 -0 -0 -0 -0 -0 -0 -0 -0 -0 -0 -0 -0 -0 -0 -0 -0 -0 -0 -0 -0 -0 -0 -0 -0 -0 -0
-0 -0 -0 -0 -0 -0 -0 -0 -0 -0 -0 -0 -0 -0 -0 -0 -0 -0 -0 -0 -0 -0 -0 -0 -0 -0 -0 -0 -0 -0 -0 -0 -0 -0 -0 -0 -0 -0 -0 -0 -0 -0 -0 -0
Wind_Speed
30 35 38 34 39 31 33 37 43 37 32 35 37 38 32 28 28 28 23 21 30 27 34 35 41 32 26 32 29 25 23 20 12 6 5 2 2 2 4 3 4 6 8 9
33 44 39 33 35 36 37 39 42 38 34 33 36 42 38 31 32 34 28 30 33 31 36 37 40 42 34 29 28 20 19 14 11 8 5 5 4 8 6 5 6 7 7 8
39 36 32 35 35 38 43 41 42 43 34 32 32 43 41 37 36 36 37 36 36 35 41 37 40 44 42 20 17 14 13 12 10 8 5 10 9 12 7 9 9 9 9 10
35 29 31 35 39 36 46 39 40 41 41 48 34 49 42 43 41 40 39 37 40 38 39 36 34 35 25 14 13 11 11 11 10 8 7 6 7 8 9 7 7 8 9 12
35 32 31 39 37 33 42 32 35 39 41 38 41 47 43 40 51 45 41 38 40 37 36 37 34 30 25 20 15 12 11 11 10 10 9 8 7 6 7 9 10 10 13 15
27 23 29 35 32 32 26 29 30 31 36 53 51 49 49 47 45 48 45 43 41 37 34 33 28 24 23 19 18 16 13 12 11 11 10 9 7 7 8 7 9 10 12 13
31 32 30 23 32 35 30 30 37 42 43 57 43 48 54 35 43 42 45 46 40 36 33 28 25 24 23 20 19 18 16 14 13 12 12 10 8 8 7 6 7 7 9 12
40 44 35 27 35 38 43 37 41 46 49 56 37 53 50 45 35 38 37 39 39 36 33 29 26 24 23 23 23 22 19 17 14 13 12 11 9 8 8 7 6 7 8 9
38 41 26 28 28 28 42 51 38 37 37 50 47 51 37 42 42 38 37 35 35 33 30 27 26 26 26 26 25 24 22 20 16 14 12 10 8 7 6 6 6 6 6 8
27 36 28 25 25 34 32 36 45 41 47 51 48 57 53 41 44 44 40 33 32 30 30 28 26 26 26 25 24 21 19 16 14 12 10 9 7 5 4 4 5 4 5 6
24 27 31 25 37 38 35 45 41 38 42 49 51 49 39 44 43 40 43 36 30 27 27 27 26 25 24 22 20 18 15 12 11 9 8 7 5 4 4 4 2 2 3 4
26 26 34 36 27 30 35 45 44 47 49 44 42 50 30 33 37 39 38 32 28 25 24 25 23 22 22 20 18 16 13 11 9 7 7 6 5 4 2 1 1 2 3 6
25 28 34 34 33 30 38 42 43 43 40 55 54 47 30 28 29 34 34 32 28 25 24 24 23 22 21 19 17 15 13 11 8 7 7 6 5 4 4 3 1 1 3 6
25 27 32 44 44 36 41 43 40 41 51 54 57 47 41 30 29 27 29 28 25 26 24 23 23 23 20 18 16 14 13 11 9 8 8 7 6 5 4 3 1 2 5 8
35 38 33 36 37 33 42 42 43 46 49 50 51 47 43 45 40 32 29 26 24 24 24 23 23 21 20 18 15 13 12 11 9 9 8 7 6 5 4 3 3 5 7 9
30 38 39 41 36 39 41 46 44 46 50 53 50 56 43 37 32 30 25 22 23 23 23 21 21 20 19 17 15 13 12 11 10 10 9 8 7 6 5 5 5 7 9 11
31 31 32 43 33 33 43 43 44 44 46 51 53 53 37 39 40 39 35 29 28 27 25 23 21 21 20 18 16 15 13 12 12 11 11 9 8 8 7 7 7 9 11 13
32 30 33 38 32 42 40 33 42 43 45 45 48 45 38 40 39 36 32 31 31 27 25 22 21 20 19 17 16 15 14 14 14 13 13 11 10 9 9 10 10 11 13 15
27 31 41 36 38 40 40 32 30 36 50 41 39 43 42 36 36 41 35 32 31 26 24 21 20 20 19 18 17 17 17 17 16 16 15 14 12 12 11 12 12 13 15 16
21 26 33 30 42 49 32 35 28 24 54 36 30 35 33 29 40 44 33 29 29 27 25 23 21 21 21 20 19 20 21 21 20 18 17 15 14 14 14 13 13 15 16 18
27 27 33 34 39 42 35 30 19 34 38 30 31 35 32 33 34 35 27 28 28 28 26 23 21 21 21 21 21 23 23 23 20 19 17 17 16 15 14 13 15 16 18 20
27 26 31 32 40 48 24 20 25 29 23 23 21 23 25 29 29 31 29 28 29 29 26 24 25 26 24 23 24 26 27 23 21 20 18 17 16 16 15 15 16 17 19 21
27 26 30 29 35 23 20 24 28 28 28 25 24 24 26 27 26 27 27 26 26 26 25 22 22 23 23 24 25 26 26 23 21 20 19 18 17 16 16 17 18 19 20 23
27 25 26 26 30 29 26 25 24 23 22 23 22 23 23 25 26 27 27 28 28 27 26 24 23 24 25 23 24 25 23 22 22 21 19 18 17 17 18 18 18 20 23 25
27 25 29 31 27 24 25 24 24 23 25 26 25 25 27 29 30 31 31 31 31 30 28 25 24 24 24 22 21 21 20 20 21 19 19 18 18 18 18 18 20 23 24 24
22 25 30 34 27 27 25 25 25 26 27 26 25 26 27 28 30 30 32 32 32 29 25 23 23 22 21 19 19 18 18 19 20 20 19 18 18 18 19 20 23 24 23 24
Wind_Direction
235 234 231 228 232 242 243 246 244 246 247 243 244 244 249 245 246 245 245 243 243 245 238 234 202 185 179 185 180 177 175 173 170 186 183 249 237 266 311 338 347 348 348 351
235 239 238 238 237 239 245 246 243 246 245 245 246 244 246 248 246 243 244 245 243 245 238 235 228 214 189 184 184 180 181 183 186 194 208 278 288 299 299 300 314 323 332 336
237 249 237 234 236 239 240 244 243 242 244 246 250 247 246 247 247 246 245 245 244 244 234 239 233 224 213 186 189 194 196 196 199 211 243 293 304 308 302 308 313 317 324 328
244 248 231 234 237 236 239 247 251 244 240 240 245 244 246 242 244 244 245 246 244 244 241 243 244 243 249 220 239 226 216 209 214 215 222 240 278 298 303 305 309 314 321 324
241 234 231 232 232 232 243 252 251 243 244 247 244 245 246 244 240 241 244 245 244 246 244 243 245 249 252 252 245 237 240 238 235 218 221 226 258 285 305 309 313 320 327 330
249 247 244 243 238 231 252 249 247 249 250 242 240 242 246 243 243 244 246 247 247 247 247 247 250 253 254 257 257 256 243 237 234 230 233 231 247 276 299 306 317 324 330 337
244 242 251 242 238 237 245 238 240 242 243 240 245 243 242 250 245 247 247 247 248 248 248 247 247 250 253 256 259 262 262 252 245 238 235 241 253 272 279 293 309 320 329 336
236 242 239 242 240 236 233 232 239 241 243 241 247 242 244 247 253 249 253 253 248 246 247 247 249 251 254 259 264 267 265 265 256 248 246 252 259 274 288 298 308 320 329 340
239 247 240 242 243 230 235 236 243 257 256 245 245 247 261 249 247 251 253 253 250 243 244 247 250 254 258 263 268 270 268 266 258 256 251 250 262 266 281 304 317 324 336 348
251 247 246 253 236 241 245 235 239 248 245 244 246 245 248 251 247 248 251 255 252 247 246 249 252 256 262 267 271 272 270 264 259 253 245 240 250 261 278 301 311 328 349 7
254 254 248 238 243 233 238 236 243 251 251 247 246 250 254 253 251 252 250 254 253 246 246 251 255 259 262 266 268 268 265 259 252 242 233 233 222 235 292 301 319 9 35 31
248 258 242 242 258 247 240 242 242 243 244 250 252 251 264 261 257 253 253 254 254 248 249 254 257 259 261 261 261 261 261 256 245 232 222 219 218 239 266 196 104 66 29 8
237 251 242 247 251 248 242 242 245 247 252 246 247 249 265 272 269 259 255 255 254 251 252 255 259 260 259 259 258 256 256 252 242 229 217 220 220 207 186 161 138 44 15 358
238 252 247 243 247 242 242 243 245 246 245 246 247 252 257 265 268 268 261 257 253 252 252 254 257 258 257 256 252 251 251 246 238 231 228 222 208 189 186 180 235 328 348 342
239 246 249 250 251 249 246 249 246 247 248 248 250 254 256 258 266 277 270 260 254 256 255 255 255 254 253 251 249 246 240 235 226 217 210 202 198 202 209 238 281 315 329 336
241 246 245 251 255 252 251 249 252 251 251 252 255 253 258 264 268 264 264 261 258 260 260 258 254 251 248 245 241 237 230 222 216 209 206 204 207 213 230 256 286 309 322 330
241 243 245 246 257 258 252 249 249 252 253 253 253 253 262 262 261 261 263 265 265 265 263 259 253 248 246 242 238 231 225 222 218 214 215 215 223 237 251 271 289 302 311 321
240 246 248 249 253 254 260 259 253 253 257 257 257 260 262 262 263 265 264 264 266 264 261 260 254 250 243 240 237 235 230 226 224 223 226 231 235 245 264 277 286 298 310 318
248 246 247 249 250 259 259 257 257 252 256 261 262 261 263 267 267 265 266 267 267 266 265 260 256 252 246 237 233 231 231 231 231 232 235 237 242 253 263 274 285 297 307 315
253 249 247 253 250 250 265 258 264 272 259 265 264 266 267 268 264 265 268 269 269 270 269 266 260 254 248 242 237 235 237 237 237 237 239 244 249 259 267 276 285 299 307 313
246 250 245 250 253 258 264 265 260 256 263 277 267 267 266 265 266 273 276 273 272 271 270 268 258 252 251 245 238 240 241 238 242 243 244 251 259 264 271 280 291 298 305 311
237 243 248 251 253 253 266 259 253 266 276 285 290 281 276 272 275 274 277 279 278 275 273 267 262 259 256 249 243 244 242 245 243 243 246 251 259 267 273 279 289 297 303 309
246 248 250 252 258 274 270 269 272 277 279 286 289 288 282 279 281 280 280 282 284 283 280 274 268 265 261 253 246 244 247 241 236 238 245 253 261 266 273 279 287 295 303 307
256 256 259 262 265 265 272 274 282 281 282 288 295 289 291 288 288 287 287 287 288 289 285 278 272 268 266 260 254 251 244 238 237 239 244 251 257 266 277 285 291 296 301 306
258 253 258 262 271 272 270 274 275 283 288 291 292 291 287 289 289 288 288 289 291 290 288 282 276 273 270 264 258 251 240 231 235 239 243 250 259 266 275 284 292 298 304 306
262 263 256 262 267 272 274 277 279 280 284 289 292 292 293 293 290 291 291 293 294 292 292 287 282 277 273 266 258 251 238 231 232 238 245 251 258 267 276 286 295 302 304 306